Regional Weather Roundup
Issued by NWS Albany, NY

Home | Current Version | Previous Version | Graphics & Text | Print | Product List | Glossary Off
Versions: 1 2 3 4 5 6 7 8 9 10 11 12 13 14 15 16 17 18 19 20 21 22 23 24 25 26 27 28 29 30 31 32 33 34 35 36 37 38 39 40 41 42 43 44 45

000
ASUS41 KALY 220210
RWRALY

NEW YORK STATE HOURLY WEATHER ROUNDUP
NATIONAL WEATHER SERVICE ALBANY NY
900 PM EST SUN DEC 21 2014

NOTE: "FAIR" INDICATES FEW OR NO CLOUDS BELOW 12,000 FEET WITH NO
SIGNIFICANT WEATHER AND/OR NO OBSTRUCTIONS TO VISIBILITY.

NYZ032-033-038>043-046>054-057>066-NYZ062>081-220300-
EAST


CITY           SKY/WX    TMP DP  RH WIND       PRES   REMARKS
ALBANY         CLOUDY    31  24  75 CALM      30.37S
GLENS FALLS    CLOUDY    28  22  78 NE3       30.37S
POUGHKEEPSIE   CLOUDY    33  26  75 NE3       30.35S
NEWBURGH       CLOUDY    32  28  86 CALM      30.35R
MONTGOMERY     CLOUDY    32  27  81 NE3       30.33S
WHITE PLAINS   CLOUDY    32  29  88 N6        30.31S WCI  26
ISLIP          CLOUDY    36  33  89 N7        30.31R WCI  30
NEW YORK CITY  CLOUDY    35  29  78 N8        30.34R WCI  29
CENTRAL PARK   CLOUDY    34  28  79 VRB5      30.36R WCI  30
$$

NYZ005>009-017-018-044>046-055-056-220300-
CENTRAL


CITY           SKY/WX    TMP DP  RH WIND       PRES   REMARKS
FULTON         CLOUDY    30  25  81 CALM      30.33S
SYRACUSE       CLOUDY    30  26  85 E3        30.34R
ROME           CLOUDY    31  23  72 E5        30.36S WCI  26
ELMIRA         CLOUDY    30  22  72 SW3       30.31R
BINGHAMTON     CLOUDY    26  20  77 CALM      30.27R
MONTICELLO     CLOUDY    28  25  86 SE5       30.29S WCI  23
$$

NYZ026>034-041>043-220300-
NORTH


CITY           SKY/WX    TMP DP  RH WIND       PRES   REMARKS
WATERTOWN      CLOUDY    28  20  71 NE5       30.34F WCI  23
FORT DRUM      NOT AVBL
MASSENA        CLOUDY    19  15  84 CALM      30.40R
SARANAC LAKE   CLOUDY    22  19  89 CALM      30.26S
PLATTSBURGH    CLOUDY    21  18  88 CALM      30.39S FOG
$$

NYZ001>004-010>016-019>021-220300-
WEST


CITY           SKY/WX    TMP DP  RH WIND       PRES   REMARKS
NIAGARA FALLS  CLOUDY    30  21  69 S3        30.30S
BUFFALO        CLOUDY    31  22  69 SE7       30.30S WCI  24
DUNKIRK        CLOUDY    30  24  78 E6        30.29S WCI  24
JAMESTOWN      CLOUDY    27  19  74 SE5       30.21F WCI  21
WELLSVILLE     CLOUDY    25  21  85 SE7       30.22F WCI  17
ROCHESTER      CLOUDY    32  22  66 S3        30.32S
PENN YAN       CLOUDY    31  21  66 CALM      30.31R
$$

             KEY
       WCI = WIND CHILL INDEX
       VSB = VISIBILITY
       HX  = HEAT INDEX
$$



USA.gov is the U.S. government's official web portal to all federal, state and local government web resources and services.